PAYLOAD B (49113 NORAD) Tracking and Keplerian Element Data

This shows tracking and keplerian element data for the satellite.

Feedback or suggestion? Click here.




ElementValue
Catalog49113
NamePAYLOAD B
Epoch Orbit353
Epoch Day262.08865522
Epoch Year2021
RAAN56.1292
Inclination86.4012
Eccentricity0.0017519
Argument of Perigee223.6907
Mean Anonmoly136.2879
Mean Motion14.08590295
Decay Rate9.5E-07
L11 49113U 21076B 21262.08865522 .00000095 00000-0 44597-4 0 9990
L22 49113 86.4012 56.1292 0017519 223.6907 136.2879 14.08590295 3538

Live tracking and technical data element details for PAYLOAD B (NORAD 49113). PAYLOAD B can be tracked NOW for your location showing map with azimuth and elevation plus other details from your city location.

Track the satellite on the map from your city or location and see movement details for azimuth, elevation, latitude, longitude, range, height, and movement on the map or in text.







IsCatalogInMostPopularTable: catalog: 49113, numindb: 6
Update: records affected: 1



GetName: 49113 PAYLOAD B

Hit Count: updated at: Fri, 24 Sep 2021 17:33:34 GMT